GW0202 Weather Reports


time (UTC)temp
F
wind
direction
speed
knots
gust
knots
rain 1hr
in
rain 24hr
in
rain mn
in
humidity
%
barometer
mb
20260505195804 73 195 3.5 13.0 0.00 0.00 0.00 53 1003.4
20260505195305 74 194 1.7 13.0 0.00 0.00 0.00 52 1003.4
20260505194759 74 199 9.6 16.5 0.00 0.00 0.00 51 1003.6
20260505194256 75 144 5.2 15.6 0.00 0.00 0.00 51 1003.6
20260505193756 75 201 1.7 15.6 0.00 0.00 0.00 51 1003.7
20260505193254 75 53 0.9 7.8 0.00 0.00 0.00 52 1003.6
20260505192752 75 203 4.3 13.9 0.00 0.00 0.00 51 1003.7
20260505192250 76 212 1.7 5.2 0.00 0.00 0.00 51 1003.8
20260505191748 75 210 12.2 13.9 0.00 0.00 0.00 50 1003.9
20260505191246 76 97 1.7 15.6 0.00 0.00 0.00 52 1004.1
20260505190742 76 152 3.5 7.0 0.00 0.00 0.00 50 1003.9
20260505190243 76 53 2.6 8.7 0.00 0.00 0.00 52 1004.1
20260505185740 76 202 7.8 18.2 0.00 0.00 0.00 50 1003.8
20260505185236 76 178 6.1 10.4 0.00 0.00 0.00 51 1003.9
20260505184732 76 106 2.6 5.2 0.00 0.00 0.00 50 1004.0
20260505184230 75 201 7.0 15.6 0.00 0.00 0.00 50 1004.2
20260505183726 75 297 3.5 8.7 0.00 0.00 0.00 51 1004.0
20260505183224 75 130 4.3 10.4 0.00 0.00 0.00 50 1004.0
20260505182720 76 146 5.2 7.0 0.00 0.00 0.00 50 1004.3
20260505182217 76 191 3.5 7.8 0.00 0.00 0.00 50 1004.2
20260505181713 75 174 4.3 8.7 0.00 0.00 0.00 50 1004.3
20260505181211 76 129 1.7 5.2 0.00 0.00 0.00 51 1004.5
20260505180707 75 135 4.3 7.8 0.00 0.00 0.00 51 1004.6
20260505180204 75 204 1.7 9.6 0.00 0.00 0.00 51 1004.5
20260505175700 74 101 2.6 7.8 0.00 0.00 0.00 54 1004.7
20260505175157 74 143 2.6 5.2 0.00 0.00 0.00 52 1004.7
20260505174653 74 82 1.7 8.7 0.00 0.00 0.00 54 1005.0
20260505174149 74 170 3.5 7.0 0.00 0.00 0.00 51 1005.1
20260505173646 73 242 7.8 7.8 0.00 0.00 0.00 53 1005.1
20260505173143 71 216 8.7 10.4 0.00 0.00 0.00 54 1005.3
20260505172641 70 217 7.8 9.6 0.00 0.00 0.00 55 1005.3
20260505172138 71 126 2.6 6.1 0.00 0.00 0.00 55 1005.3
20260505171637 73 246 9.6 11.3 0.00 0.00 0.00 53 1005.5
20260505171135 72 174 4.3 7.8 0.00 0.00 0.00 53 1005.2
20260505170632 71 61 1.7 7.8 0.00 0.00 0.00 56 1005.5
20260505170128 70 230 4.3 13.0 0.00 0.00 0.00 56 1005.6
20260505165623 71 148 2.6 5.2 0.00 0.00 0.00 54 1005.8
20260505165120 70 201 6.1 11.3 0.00 0.00 0.00 55 1005.7
20260505164615 71 222 7.0 8.7 0.00 0.00 0.00 54 1005.9
20260505164113 71 222 7.8 9.6 0.00 0.00 0.00 55 1005.7
20260505163611 70 131 3.5 10.4 0.00 0.00 0.00 54 1005.9
20260505163108 70 201 6.1 13.0 0.00 0.00 0.00 54 1006.0
20260505162606 72 93 1.7 6.1 0.00 0.00 0.00 53 1006.2
20260505162103 71 138 6.1 7.8 0.00 0.00 0.00 56 1005.8
20260505161600 72 244 5.2 7.0 0.00 0.00 0.00 55 1006.1
20260505161057 72 164 5.2 6.1 0.00 0.00 0.00 54 1006.0
20260505160555 71 129 2.6 7.8 0.00 0.00 0.00 54 1005.9
20260505153032 69 99 1.7 4.3 0.00 0.00 0.00 57 1006.9
20260505152528 70 138 0.9 3.5 0.00 0.00 0.00 55 1007.1
20260505152024 69 97 0.9 6.1 0.00 0.00 0.00 56 1007.2
20260505151519 69 218 4.3 4.3 0.00 0.00 0.00 57 1006.9
20260505151017 67 201 6.1 7.8 0.00 0.00 0.00 57 1007.1
20260505150513 68 153 3.5 7.8 0.00 0.00 0.00 58 1006.8
20260505140438 65 202 1.7 12.2 0.00 0.00 0.00 59 1007.3
20260505124852 61 211 1.7 3.5 0.00 0.00 0.00 63 1007.6
20260505124349 60 154 1.7 10.4 0.00 0.00 0.00 64 1007.7
20260505123845 59 261 1.7 11.3 0.00 0.00 0.00 66 1007.6
20260505123342 60 185 1.7 4.3 0.00 0.00 0.00 65 1007.7
20260505122837 59 208 2.6 9.6 0.00 0.00 0.00 67 1007.8
20260505122335 59 126 0.9 8.7 0.00 0.00 0.00 67 1007.8
20260505121832 58 200 1.7 5.2 0.00 0.00 0.00 69 1007.9
20260505121329 57 154 0.0 7.0 0.00 0.00 0.00 70 1007.9
20260505120825 57 137 1.7 8.7 0.00 0.00 0.00 70 1008.0
20260505120321 56 203 3.5 5.2 0.00 0.00 0.00 71 1007.8
20260505115819 56 149 1.7 7.8 0.00 0.00 0.00 71 1008.1
20260505115317 56 86 1.7 4.3 0.00 0.00 0.00 73 1008.0
20260505114815 55 180 1.7 7.8 0.00 0.00 0.00 73 1008.0
20260505114311 55 163 3.5 4.3 0.00 0.00 0.00 73 1008.0
20260505113808 55 223 2.6 4.3 0.00 0.00 0.00 75 1008.0
20260505113304 53 250 0.9 3.5 0.00 0.00 0.00 76 1008.0
20260505112800 53 212 4.3 5.2 0.00 0.00 0.00 77 1008.1
20260505112258 53 174 1.7 5.2 0.00 0.00 0.00 78 1008.1
20260505111758 53 180 0.0 3.5 0.00 0.00 0.00 78 1008.1
20260505111254 53 194 3.5 3.5 0.00 0.00 0.00 78 1008.2
20260505110750 52 224 0.9 6.1 0.00 0.00 0.00 79 1008.0
20260505110248 52 231 3.5 4.3 0.00 0.00 0.00 79 1008.0
20260505101722 49 151 1.7 1.7 0.00 0.00 0.00 84 1007.9
20260505101217 48 77 0.9 1.7 0.00 0.00 0.00 88 1008.0
20260505100714 47 80 1.7 1.7 0.00 0.00 0.00 88 1007.8
20260505100211 47 80 1.7 1.7 0.00 0.00 0.00 88 1007.9
20260505095706 48 98 1.7 2.6 0.00 0.00 0.00 86 1007.8
20260505095205 48 221 1.7 2.6 0.00 0.00 0.00 86 1008.1
20260505094700 47 149 0.0 2.6 0.00 0.00 0.00 86 1007.9
20260505094157 47 89 0.0 3.5 0.00 0.00 0.00 86 1008.0
20260505093653 48 121 0.0 2.6 0.00 0.00 0.00 85 1007.9
20260505093151 48 71 1.7 2.6 0.00 0.00 0.00 86 1007.7
20260505092647 48 20 1.7 3.5 0.00 0.00 0.00 85 1007.8
20260505092146 48 139 1.7 2.6 0.00 0.00 0.00 85 1007.6
20260505091643 48 75 0.0 1.7 0.00 0.00 0.00 85 1007.8
20260505091141 48 180 1.7 1.7 0.00 0.00 0.00 85 1008.0
20260505090638 48 179 1.7 2.6 0.00 0.00 0.00 85 1007.9
20260505090136 48 11 0.0 0.9 0.00 0.00 0.00 85 1008.0
20260505085633 48 138 1.7 1.7 0.00 0.00 0.00 84 1007.9
20260505085131 47 134 0.9 1.7 0.00 0.00 0.00 85 1007.9
20260505084629 47 55 0.0 1.7 0.00 0.00 0.00 85 1007.9
20260505084127 48 236 0.0 1.7 0.00 0.00 0.00 84 1007.9
20260505083624 48 114 0.0 2.6 0.00 0.00 0.00 83 1008.1
20260505083121 48 236 0.0 1.7 0.00 0.00 0.00 84 1007.9
20260505082617 47 204 1.7 1.7 0.00 0.00 0.00 84 1007.9
20260505082114 47 11 0.0 1.7 0.00 0.00 0.00 85 1008.1
20260505081610 47 5 0.0 1.7 0.00 0.00 0.00 85 1007.9
20260505081108 47 135 0.0 3.5 0.00 0.00 0.00 84 1008.0
20260505080603 47 283 0.9 1.7 0.00 0.00 0.00 85 1008.1
20260505080100 46 43 0.0 0.9 0.00 0.00 0.00 87 1008.3
20260505075556 46 22 0.0 1.7 0.00 0.00 0.00 87 1008.1
20260505075053 46 165 0.9 1.7 0.00 0.00 0.00 86 1008.2
20260505074550 47 162 2.6 2.6 0.00 0.00 0.00 85 1007.9
20260505074047 47 69 0.0 2.6 0.00 0.00 0.00 85 1008.1
20260505073544 47 118 0.0 0.9 0.00 0.00 0.00 85 1007.9
20260505073043 47 194 0.9 1.7 0.00 0.00 0.00 85 1008.0
20260505072538 47 94 0.0 2.6 0.00 0.00 0.00 85 1008.0
20260505072035 47 172 0.9 2.6 0.00 0.00 0.00 84 1008.1
20260505071530 47 136 0.9 2.6 0.00 0.00 0.00 85 1008.0
20260505071029 47 340 0.0 2.6 0.00 0.00 0.00 86 1008.1
20260505070526 46 119 0.0 1.7 0.00 0.00 0.00 89 1008.0
20260505070022 46 330 0.0 0.9 0.00 0.00 0.00 89 1007.9
20260505065518 45 341 0.0 0.9 0.00 0.00 0.00 91 1008.1
20260505065014 45 116 0.0 0.0 0.00 0.00 0.00 91 1007.9
20260505064511 45 235 0.0 0.9 0.00 0.00 0.00 90 1008.0
20260505064010 45 351 0.0 1.7 0.00 0.00 0.00 91 1007.9
20260505063507 45 331 0.9 1.7 0.00 0.00 0.00 90 1007.9
20260505063008 45 235 0.0 0.9 0.00 0.00 0.00 90 1007.9
20260505062505 46 27 0.9 0.9 0.00 0.00 0.00 89 1008.0
20260505062002 46 63 0.0 1.7 0.00 0.00 0.00 88 1007.9
20260505061459 46 190 0.0 1.7 0.00 0.00 0.00 88 1008.1
20260505060957 46 233 0.0 2.6 0.00 0.00 0.00 87 1008.1
20260505060454 46 66 0.0 1.7 0.00 0.00 0.00 89 1008.0
20260505055950 45 221 1.7 2.6 0.00 0.00 0.00 91 1007.8
20260505055446 45 19 0.0 0.0 0.00 0.00 0.00 91 1008.0
20260505054943 46 113 0.0 1.7 0.00 0.00 0.00 90 1007.9
20260505054441 46 246 0.0 0.9 0.00 0.00 0.00 90 1007.9
20260505053938 46 135 0.0 1.7 0.00 0.00 0.00 89 1007.9
20260505053435 46 38 0.0 1.7 0.00 0.00 0.00 90 1007.9
20260505052932 46 103 0.0 0.9 0.00 0.00 0.00 89 1007.8
20260505052429 47 112 0.0 1.7 0.00 0.00 0.00 88 1007.7
20260505051926 47 144 0.0 1.7 0.00 0.00 0.00 87 1007.7
20260505051423 47 160 0.0 1.7 0.00 0.00 0.00 87 1008.0
20260505050921 47 176 0.0 2.6 0.00 0.00 0.00 87 1007.9
20260505050419 47 79 0.9 2.6 0.00 0.00 0.00 86 1008.2
20260505041347 45 177 0.0 1.7 0.00 0.00 0.00 95 1007.6
20260505040844 45 136 1.7 1.7 0.00 0.00 0.00 95 1007.4
20260505040342 45 110 0.9 1.7 0.00 0.00 0.00 95 1007.6
20260505035838 45 84 1.7 1.7 0.00 0.04 0.04 94 1007.4
20260505035334 45 102 1.7 1.7 0.00 0.04 0.04 95 1007.5
20260505034832 46 98 0.9 2.6 0.00 0.04 0.04 94 1007.4
20260505034328 46 93 0.9 1.7 0.00 0.04 0.04 94 1007.3
20260505033825 46 70 1.7 1.7 0.00 0.04 0.04 93 1007.5
20260505033322 46 88 1.7 2.6 0.00 0.04 0.04 92 1007.3
20260505032820 46 120 0.0 1.7 0.00 0.04 0.04 92 1007.2
20260505032316 46 124 0.0 0.9 0.00 0.04 0.04 93 1007.4
20260505031814 46 79 0.9 1.7 0.00 0.04 0.04 94 1007.2
20260505031309 46 67 1.7 1.7 0.00 0.04 0.04 95 1007.2
20260505030807 46 69 1.7 1.7 0.00 0.04 0.04 95 1007.2
20260505030303 47 54 1.7 1.7 0.00 0.04 0.04 94 1007.4
20260505025758 47 150 0.0 1.7 0.00 0.04 0.04 94 1007.3
20260505025256 47 39 0.9 1.7 0.00 0.04 0.04 93 1007.3
20260505024754 48 76 0.9 1.7 0.00 0.04 0.04 92 1007.5
20260505024252 48 82 0.9 2.6 0.00 0.04 0.04 91 1007.6
20260505023749 49 99 1.7 1.7 0.00 0.04 0.04 89 1007.5
20260505023246 48 81 0.0 0.9 0.00 0.04 0.04 90 1007.4
20260505022743 48 63 1.7 1.7 0.00 0.04 0.04 90 1007.2
20260505022240 48 49 0.0 0.9 0.00 0.04 0.04 90 1007.5
20260505021737 49 38 0.9 1.7 0.00 0.04 0.04 90 1007.4
20260505021234 49 43 1.7 1.7 0.00 0.04 0.04 88 1007.4
20260505020729 49 64 0.0 1.7 0.00 0.04 0.04 87 1007.5
20260505020225 50 82 0.0 1.7 0.00 0.04 0.04 86 1007.6
20260505015723 50 107 0.9 1.7 0.00 0.04 0.04 85 1007.5
20260505015219 50 77 1.7 1.7 0.00 0.04 0.04 85 1007.5
20260505014716 50 32 1.7 2.6 0.00 0.04 0.04 85 1007.5
20260505014214 50 57 0.0 0.0 0.00 0.04 0.04 84 1007.4
20260505013710 50 45 1.7 1.7 0.00 0.04 0.04 85 1007.3
20260505013207 50 52 1.7 1.7 0.00 0.04 0.04 84 1007.4
20260505012706 50 18 0.9 0.9 0.00 0.04 0.04 85 1007.4
20260505012203 49 27 0.9 0.9 0.00 0.04 0.04 87 1007.4
20260505011658 50 44 0.0 1.7 0.00 0.04 0.04 87 1007.3
20260505011155 49 49 1.7 2.6 0.00 0.04 0.04 87 1007.2
20260505010650 50 72 1.7 1.7 0.00 0.04 0.04 86 1007.1
20260505010148 50 106 2.6 2.6 0.00 0.04 0.04 84 1007.2
20260505005644 50 33 0.9 1.7 0.00 0.04 0.04 83 1007.1
20260505005141 50 57 0.0 1.7 0.00 0.04 0.04 83 1007.0
20260505004638 50 58 0.9 1.7 0.00 0.04 0.04 83 1006.8
20260505004134 51 4 1.7 2.6 0.00 0.04 0.04 83 1006.7
20260505003632 51 138 0.0 1.7 0.00 0.04 0.04 82 1006.8
20260505003129 51 357 0.9 1.7 0.00 0.04 0.04 82 1006.7
20260505002625 51 124 0.0 0.9 0.00 0.04 0.04 79 1006.6
20260505002124 52 81 0.0 1.7 0.00 0.04 0.04 79 1006.5
20260505001620 52 89 0.0 0.0 0.00 0.04 0.04 79 1006.3
20260505001118 52 66 0.0 0.9 0.00 0.04 0.04 79 1006.1
20260505000615 52 29 0.0 0.0 0.00 0.04 0.04 79 1006.1
20260505000113 53 24 0.9 0.9 0.00 0.04 0.04 79 1006.1
20260504235609 53 44 0.0 0.9 0.00 0.04 0.04 78 1006.1
20260504235106 53 359 0.0 0.9 0.00 0.04 0.04 78 1006.1
20260504234602 54 61 0.0 0.9 0.00 0.04 0.04 76 1005.9
20260504234100 55 39 1.7 1.7 0.00 0.04 0.04 75 1005.8
20260504233555 55 32 0.0 0.0 0.00 0.04 0.04 73 1006.0
20260504233052 56 44 0.0 0.9 0.00 0.04 0.04 73 1005.7
20260504232549 57 333 0.0 0.9 0.00 0.04 0.04 70 1005.7
20260504232047 57 40 0.0 1.7 0.00 0.04 0.04 69 1005.8
20260504231543 59 326 0.0 0.9 0.00 0.04 0.04 66 1005.6
20260504231039 59 1 0.0 0.9 0.00 0.04 0.04 66 1005.6
20260504230535 61 151 0.0 0.9 0.00 0.04 0.04 60 1005.5
20260504230035 63 122 0.0 0.9 0.00 0.04 0.04 57 1005.5
20260504225531 64 6 0.0 1.7 0.00 0.04 0.04 55 1005.4
20260504225028 64 38 0.9 1.7 0.00 0.04 0.04 51 1005.4
20260504224525 64 64 1.7 1.7 0.00 0.04 0.04 51 1005.4
20260504224022 64 50 1.7 2.6 0.00 0.04 0.04 52 1005.5
20260504223519 64 200 1.7 3.5 0.00 0.04 0.04 51 1005.5
20260504223015 65 48 1.7 2.6 0.00 0.04 0.04 51 1005.4
20260504222512 66 1 0.0 1.7 0.00 0.04 0.04 49 1005.5
20260504222009 65 244 0.9 3.5 0.00 0.04 0.04 52 1005.5
20260504221506 64 279 0.0 3.5 0.00 0.04 0.04 52 1005.6
20260504221003 65 231 3.5 3.5 0.00 0.04 0.04 50 1005.6
20260504220459 64 81 0.9 4.3 0.00 0.04 0.04 53 1005.4
20260504215956 64 196 1.7 3.5 0.00 0.04 0.04 51 1005.5
20260504215453 64 238 0.9 3.5 0.00 0.04 0.04 53 1005.6
20260504214950 64 9 1.7 5.2 0.00 0.04 0.04 52 1005.5
20260504214446 64 228 1.7 7.8 0.00 0.04 0.04 52 1005.3
20260504213943 64 114 0.0 5.2 0.00 0.04 0.04 54 1005.4
20260504213439 64 309 2.6 4.3 0.00 0.04 0.04 53 1005.5
20260504212937 64 71 1.7 4.3 0.00 0.04 0.04 53 1005.4
20260504212432 62 340 3.5 3.5 0.00 0.04 0.04 55 1005.5
20260504211930 62 332 1.7 4.3 0.00 0.04 0.04 56 1005.6
20260504211426 62 303 3.5 3.5 0.00 0.04 0.04 56 1005.6
20260504210924 62 356 2.6 4.3 0.00 0.04 0.04 55 1005.6
20260504210420 64 0 1.7 6.1 0.00 0.04 0.04 54 1005.5
20260504205918 64 240 3.5 7.8 0.00 0.04 0.04 54 1005.4
20260504205415 64 201 1.7 10.4 0.00 0.04 0.04 54 1005.4
20260504204913 63 286 4.3 9.6 0.00 0.04 0.04 53 1005.4
20260504204411 64 299 4.3 6.1 0.00 0.04 0.04 55 1005.3
20260504203911 64 265 6.1 7.8 0.00 0.04 0.04 54 1005.4
20260504203407 63 178 3.5 7.0 0.00 0.04 0.04 55 1005.5
20260504202903 62 335 7.0 12.2 0.00 0.04 0.04 55 1005.4
20260504202400 62 233 4.3 4.3 0.00 0.04 0.04 57 1005.5
20260504201856 61 125 3.5 5.2 0.00 0.04 0.04 58 1005.5
20260504201354 62 253 5.2 7.8 0.00 0.04 0.04 57 1005.4
20260504200851 61 93 3.5 7.8 0.00 0.04 0.04 58 1005.2
20260504200348 61 353 4.3 15.6 0.00 0.04 0.04 59 1005.5